Location: Svitavy
(49.7500°N, 16.4667°E)
Time: 00:57:01
(UTC+02:00)

ISS - Visible Passes

Search period start: 22 October 2019 00:00
Search period end: 31 October 2019 23:00
Orbit: 411 x 421 km, 51.6° (Epoch: 21 October)

Date Brightness Start Highest point End Pass type
(mag) Time Alt. Az. Time Alt. Az. Time Alt. Az.
24 Oct -1.1 06:50:18 10° S 06:52:51 20° SE 06:55:22 10° E visible
25 Oct -0.8 06:02:45 10° SSE 06:04:27 13° SE 06:06:09 10° ESE visible
26 Oct -2.5 06:48:55 10° SW 06:52:06 40° SSE 06:55:17 10° E visible
27 Oct -1.9 05:00:46 11° SSW 05:03:35 27° SE 05:06:31 10° E visible
28 Oct -1.5 04:14:37 18° SSE 04:15:07 19° SE 04:17:34 10° E visible
28 Oct -3.6 05:48:06 10° WSW 05:51:28 75° SSE 05:54:50 10° ENE visible
29 Oct -3.2 05:01:14 26° SW 05:02:51 54° SSE 05:06:10 10° ENE visible
30 Oct -2.3 04:14:50 35° SE 04:14:50 35° SE 04:17:26 10° E visible
30 Oct -3.7 05:47:44 11° W 05:50:55 72° N 05:54:16 10° ENE visible
31 Oct -0.3 03:28:19 12° E 03:28:19 12° E 03:28:36 10° E visible
31 Oct -3.9 05:01:13 43° WSW 05:02:13 88° NNW 05:05:36 10° ENE visible
